Find Starlink 3843

NORAD ID: 52341 Int'l Des: 2022-045 Owner: SPXS Country: US Constellation: starlink operational
LEOCIRCULAR

当前视图

正在加载3D地球...

About Starlink 3843

Starlink 3843 (NORAD 52341) is a starlink constellation satellite (v1.5) launched Apr 29, 2022 by SPXS of US. It operates in LEO, CIRCULAR orbit with a mass of 297.00 kg.

关于 Starlink 3843

正在加载描述...

即将过境

Passes for default location (London). Set your location on the main map for personalized predictions.

高度历史

Loading altitude history...

两行轨道根数

1 52341U 22045L 26164.20986133 -.00000326 00000-0 -24042-5 0 9999
2 52341 53.1609 140.1930 0001382 90.1259 269.9891 15.08833346230065
Epoch: Jun 13, 2026 • Age: 11 hours

当前状态

高度 549.7 km
速度 7.59 km/s
星下点 -30.52°S, 150.81°W
发射日期 Apr 29, 2022
运行时间 4.1 years
类型 internet

技术详情

分类 Payload
质量 297.00 kg
干质量 275.00 kg
总质量 297.00 kg
长度 0.20 m
直径 2.80 m
跨度 9.00 m
形状 Box + pan
制造商 SPXS
平台类型 Starlink
阶段状态 In Orbit
所有者/国家 SPXS/US

Most Searched